Location: Strawberry
(45.6646°N, 111.9596°W)
Time: 11:51:18
(UTC+00:00)

Transit 4A - Pass Details

Date: 09 October 2022
Orbit: 871 x 973 km, 66.8° (Epoch: 26 November)

Event Time Altitude Azimuth Distance (km) Brightness Sun altitude
Rises 11:32:38 0° 330° (NNW) 3,502 10.8 -22.3°
Reaches altitude 10° 11:35:24 10° 340° (NNW) 2,548 10.1 -21.8°
Maximum altitude 11:40:42 34° 44° (NE) 1,413 9.3 -20.9°
Drops below altitude 10° 11:45:56 10° 109° (ESE) 2,517 11.0 -20.0°
Sets 11:48:39 0° 118° (ESE) 3,454 11.7 -19.6°
